Regional Weather Roundup
Issued by NWS Boston, MA

Home | Current Version | Previous Version | Text Only | Print | Product List | Glossary On
Versions: 1 2 3 4 5 6 7 8 9 10 11 12 13 14 15 16 17 18 19 20 21 22 23 24 25 26 27 28
000
ASUS41 KBOX 291610
RWRBOX

REGIONAL WEATHER ROUNDUP
NATIONAL WEATHER SERVICE TAUNTON MA
1200 PM EDT FRI JUL 29 2016

NOTE:  "FAIR" INDICATES FEW OR NO CLOUDS BELOW 12,000 FEET WITH NO
SIGNIFICANT WEATHER AND/OR OBSTRUCTIONS TO VISIBILITY.

MAZALL-291700-
EASTERN MASSACHUSETTS

CITY           SKY/WX    TMP DP  RH WIND       PRES   REMARKS
BOSTON         LGT RAIN  73  70  90 SE5       29.88S
BEVERLY        PTSUNNY   73  71  93 N5        29.87S
LAWRENCE       CLOUDY    75  70  84 CALM      29.90F
BEDFORD        CLOUDY    77  67  71 N6        29.87F
BLUE HILL        N/A     70  68  93 E5        29.89S
NORWOOD        CLOUDY    75  70  84 NE6       29.88S
MARSHFIELD     CLOUDY    72  70  94 VRB6      29.87S
PLYMOUTH       LGT RAIN  72  69  90 NW6       29.89R FOG
TAUNTON        LGT RAIN  73  70  90 CALM      29.87S FOG
NEW BEDFORD    LGT RAIN  74  72  93 N3        29.86F FOG
$$

MAZALL-291700-
CAPE COD AND THE ISLANDS

CITY           SKY/WX    TMP DP  RH WIND       PRES   REMARKS
FALMOUTH       LGT RAIN  73  70  88 N7        29.86S FOG
HYANNIS        RAIN      71  70  96 N8        29.86S FOG
CHATHAM        RAIN      71  71 100 CALM      29.88S FOG
PROVINCETOWN   LGT RAIN  71  71 100 N6        29.88R VSB 1/2
NANTUCKET      HVY RAIN  70  67  90 N12       29.85F FOG
MARTHAS VNYRD  RAIN      72  70  93 E3        29.87R FOG
$$

MAZALL-291700-
CENTRAL AND WESTERN MASSACHUSETTS

CITY           SKY/WX    TMP DP  RH WIND       PRES   REMARKS
WORCESTER      CLOUDY    73  67  81 CALM      29.92S
FITCHBURG      PTSUNNY   80  68  66 N5        29.90F
ORANGE         MOSUNNY   78  69  73 E7        29.89F
SPRINGFIELD    PTSUNNY   79  68  69 NE6       29.86F
WESTFIELD      SUNNY     83  65  54 VRB3      29.87F
NORTH ADAMS    MOSUNNY   80  62  54 CALM      29.89F
PITTSFIELD     MOSUNNY   80  64  58 CALM      29.91S
$$

RIZALL-291700-
RHODE ISLAND

CITY           SKY/WX    TMP DP  RH WIND       PRES   REMARKS
PROVIDENCE     LGT RAIN  74  71  91 NE6       29.88S FOG
NEWPORT        LGT RAIN  72  71  97 N7        29.87F FOG
BLOCK ISLAND   RAIN      68  66  94 N14         N/A  FOG
SMITHFIELD     CLOUDY    72  68  88 NE8       29.89F
WESTERLY       RAIN      71  67  87 N5        29.87F FOG
$$

CTZALL-291700-
CONNECTICUT

CITY           SKY/WX    TMP DP  RH WIND       PRES   REMARKS
BRADLEY INTL   MOSUNNY   80  69  69 N7        29.88F
HARTFORD       CLOUDY    80  70  71 NE6       29.87S
BRIDGEPORT     LGT RAIN  74  70  87 NE10      29.86S
DANBURY        CLOUDY    78  67  68 NE8       29.89S
GROTON         RAIN      72  69  90 NE7       29.86S FOG
NEW HAVEN      LGT RAIN  73  69  87 NE10      29.86F
CHESTER        LGT RAIN  73  70  88 NE5       29.88S
MERIDEN        CLOUDY    78  68  71 N7        29.87S
WILLIMANTIC    LGT RAIN  76  71  85 E5        29.88F
OXFORD         PTSUNNY   75  66  73 NE6       29.91S
$$

MEZ002-015-021-024-NHZ003-005-008-011-012-014-VTZ005-008-291700-
NORTHERN NEW ENGLAND

CITY           SKY/WX    TMP DP  RH WIND       PRES   REMARKS
PORTLAND ME    CLOUDY    78  67  68 N7        29.88F
BANGOR ME      CLOUDY    82  64  54 NW7       29.90F
CONCORD NH     CLOUDY    79  67  66 N7        29.90S
MANCHESTER NH  CLOUDY    76  66  71 N5        29.88S
NASHUA NH      CLOUDY    75  69  81 CALM      29.90S
PORTSMOUTH NH  CLOUDY    74  68  79 N6        29.87S
JAFFREY NH     CLOUDY    74  66  76 VRB3      29.92F
KEENE NH       CLOUDY    78  68  71 N8        29.89F
BURLINGTON VT  PTSUNNY   78  64  61 N8        29.93S
MT. WASHINGTON FOG       54  52  94 N7          N/A  VSB 1
$$

NYZ052-076-291700-
EASTERN NEW YORK

CITY           SKY/WX    TMP DP  RH WIND       PRES   REMARKS
ALBANY         PTSUNNY   79  68  69 N8        29.90S
NEW YORK CITY  PTSUNNY   77  66  68 NE16      29.85S
$$

ANZALL-291700-
MARINE OBSERVATIONS

STATION/POSITION TIME  TEMP    WIND        PRES    VSBY  WAVE
                       AIR SEA DIR/SP/G                  HT/PER
                 (UTC) (F)     (DEG/KT/KT) (MB)    (MI)  (FT/S)
BOSTON BUOY      1550   70 71   10/  8/ 10 1011.7R         1/ 3
BUZZARDS BAY     1500   73      10/ 15/ 16 1011.7R
NANTUCKET SOUND  1550   73 74  110/  8/ 10 1010.9F         0
MASS BAY-STELLWA 1504   69 69   10/ 10/ 10 1011.3F  1 5/8  1/ 8
ISLE OF SHOALS   1500   69      30/  7/  8 1011.5S
S OF BLOCK IS    1525      74                N/A           1/ 7
$$

......................KEY.........................
  SKY/WX - SKY CONDITION/PRESENT WEATHER
  TMP    - TEMPERATURE IN FAHRENHEIT
  DWPT   - DEWPOINT IN FAHRENHEIT
  RH     - RELATIVE HUMIDITY IN PERCENT
  WIND   - DIRECTION AND SPEED IN MPH
  PRES   - MEAN SEA LEVEL PRESSURE IN INCHES OF HG
  WCI    - WIND CHILL INDEX
  VSB    - VISIBILITY IN MILES
  HX     - HEAT INDEX
  TC     - TEMPERATURE IN CELSIUS
  VRB    - VARIABLE WIND DIRECTION
  N/A    - NOT AVAILABLE




USA.gov is the U.S. government's official web portal to all federal, state and local government web resources and services.